Tracking 20712 objects as of 30-May-2020
HD Live streaming from Space Station
objects crossing your sky now

WESTFORD NEEDLES

Track WESTFORD NEEDLES now!
10-day predictions
WESTFORD NEEDLES is classified as:


NORAD ID: 20504
Int'l Code: 1963-014FD
Perigee: 761.8 km
Apogee: 6,206.3 km
Inclination: 84.8 °
Period: 162.3 minutes
Semi major axis: 9855 km
RCS: 0.1216 m2 (medium)
Launch date: May 9, 1963
Source: United States (US)
Launch site: AIR FORCE WESTERN TEST RANGE (AFWTR)
aabbcc
Your satellite tracking list
Your tracking list is empty




NASA's NSSDC Master Catalog

Two Line Element Set (TLE):
1 20504U 63014FD  20150.30395327 +.00005177 +00000-0 +17851-1 0  9998
2 20504 084.8318 116.5842 2762287 160.0423 213.4486 08.87392524229258
Source of the keplerian elements: AFSPC